KT4FD Weather Reports


Display with metric or nautical units.
time (UTC)temp
F
wind
direction
speed
MPH
gust
MPH
rain 1hr
in
rain 24hr
in
rain mn
in
humidity
%
barometer
mb
20260902025003 75 12 0.0 0.0 0.00 0.00 0.00 87 1020.3
20260902024003 75 12 0.0 0.0 0.00 0.00 0.00 87 1020.3
20260902023003 75 12 0.0 0.0 0.00 0.00 0.00 87 1020.2
20260902022003 76 12 0.0 0.0 0.00 0.00 0.00 87 1020.1
20260902021003 76 12 0.0 0.0 0.00 0.00 0.00 86 1019.9
20260902020002 76 12 0.0 0.0 0.00 0.00 0.00 86 1019.9
20260901205003 90 5 3.0 6.0 0.00 0.04 0.00 57 1019.5
20260901204003 90 5 1.0 3.0 0.00 0.04 0.00 57 1019.7
20260901203003 89 5 4.0 6.0 0.00 0.04 0.00 59 1020.0
20260901202003 88 5 2.0 5.0 0.00 0.04 0.00 57 1020.1
20260901201003 88 5 2.0 3.0 0.00 0.04 0.00 61 1020.2
20260901200003 89 5 3.0 6.0 0.00 0.04 0.00 55 1020.1
20260901124003 68 280 0.0 0.0 0.00 0.04 0.00 91 1022.5
20260901123003 68 280 0.0 0.0 0.00 0.04 0.00 91 1022.5
20260901122003 67 280 0.0 0.0 0.00 0.04 0.00 91 1022.4
20260901121003 67 280 0.0 0.0 0.00 0.04 0.00 91 1022.4
20260901120003 67 280 0.0 0.0 0.00 0.04 0.00 91 1022.3
20260901115003 67 280 0.0 0.0 0.00 0.04 0.00 90 1022.1
20260901114003 67 280 0.0 0.0 0.00 0.04 0.00 90 1022.0
20260901113003 67 280 0.0 0.0 0.00 0.04 0.00 90 1021.9
20260901112003 66 280 0.0 0.0 0.00 0.04 0.00 90 1021.7
20260901111004 67 280 0.0 0.0 0.00 0.04 0.00 90 1021.6
20260901110004 67 280 0.0 0.0 0.00 0.04 0.00 90 1021.6
20260901105003 67 280 0.0 0.0 0.00 0.04 0.00 90 1021.5
20260901104003 67 280 0.0 0.0 0.00 0.04 0.00 90 1021.4
20260901072004 68 280 0.0 0.0 0.00 0.04 0.00 91 1021.1
20260901071003 68 280 0.0 0.0 0.00 0.04 0.00 91 1021.2
20260901070003 68 280 0.0 0.0 0.00 0.04 0.00 91 1021.3
20260901065003 68 280 0.0 0.0 0.00 0.04 0.00 91 1021.3
20260901064003 68 280 0.0 0.0 0.00 0.04 0.00 91 1021.3
20260901063003 68 280 0.0 0.0 0.00 0.04 0.00 91 1021.3
20260901062003 68 280 0.0 0.0 0.00 0.04 0.00 91 1021.5
20260901061003 68 280 0.0 0.0 0.00 0.04 0.00 91 1021.6
20260901060003 68 280 0.0 0.0 0.00 0.04 0.00 91 1021.6
20260901055003 69 280 0.0 2.0 0.00 0.04 0.00 91 1021.5
20260901054003 69 280 0.0 3.0 0.00 0.04 0.00 91 1021.6
20260901053003 68 280 0.0 3.0 0.00 0.04 0.00 91 1021.6
20260901052004 68 280 1.0 3.0 0.00 0.04 0.00 91 1021.5
20260901051004 68 280 0.0 0.0 0.00 0.04 0.00 91 1021.5
20260901050003 68 280 0.0 0.0 0.00 0.04 0.00 91 1021.5
20260901045003 69 280 0.0 0.0 0.00 0.04 0.00 91 1021.5
20260901044004 69 280 0.0 0.0 0.00 0.04 0.00 91 1021.4